Simultaneous Nadir Overpasses (SNOs) Predictions

Prediction of SNOs between METOP-B and NOAA-19 Satellite Orbit:

Table of predicted SNOs for the next 14.0 days since TLE Epoch: 1/24/2020
Index Date (METOP-B) Time (METOP-B) Lat,Lon (METOP-B) SZA (METOP-B ) Date (NOAA-19) Time (NOAA-19) Lat,Lon (NOAA-19) SZA (NOAA-19 ) Distance(km) Time Diff (sec)
1 01/30/2020 08:05:48 79.76, 78.73 97.90 01/30/2020 08:04:35 79.76, 78.86 97.89 2.62 73
2 01/30/2020 08:56:29 -79.78,-113.78 82.09 01/30/2020 08:55:33 -79.76,-113.83 82.13 2.91 56
3 01/30/2020 09:47:10 79.75, 53.28 97.86 01/30/2020 09:46:36 79.77, 53.26 97.87 2.07 34
4 01/30/2020 10:37:51 -79.74,-139.51 82.17 01/30/2020 10:37:33 -79.76,-139.42 82.14 3.48 18
5 01/30/2020 11:28:31 79.74, 27.83 97.83 01/30/2020 11:28:35 79.75, 27.97 97.85 3.01 4
6 01/30/2020 12:19:12 -79.76,-164.68 82.16 01/30/2020 12:19:33 -79.75,-164.71 82.17 1.41 21
7 01/30/2020 13:09:52 79.76, 2.67 97.83 01/30/2020 13:10:35 79.73, 2.67 97.82 2.71 43
8 01/30/2020 14:00:34 -79.74, 169.87 82.20 01/30/2020 14:01:33 -79.73, 169.99 82.20 3.04 59




NCC Satellite Simultaneous Nadir Overpasses (SNOs) Prediction Service
